Flag for U.S.A. Weather past 2 weeks in Oklahoma City, Oklahoma, U.S.A.

Now
34 °F

Overcast.


Feels Like: 29 °F
Forecast: 24 / 38 °F
Wind: 6 mph from Southeast

Location: Will Rogers World Airport

Current Time: Mar 2, 2015 at 1:42:12 PM

Latest Report: Mar 2, 2015 at 12:52 PM


Visibility: 10 mi

Pressure: 30.32 "Hg

Humidity: 73%

Dew point: 26 °F

Location of Oklahoma CityLocation

Historic Weather in Oklahoma City — Graph

°F

Oklahoma City temperature yesterday

Maximum temperature yesterday: 34 °F (at 4:52 PM)
Minimum temperature yesterday: 28 °F (at 12:52 AM)
Average temperature yesterday: 31 °F

Past Weeks' High & Low Weather Summary

 TemperatureHumidityPressure
High58 °F (Feb 21, 3:52 PM)93% (Feb 20, 10:52 PM)30.68 "Hg (Feb 20, 10:52 PM)
Low18 °F (Feb 27, 7:52 AM)25% (Feb 19, 12:52 PM)29.67 "Hg (Feb 20, 8:04 PM)
Average32 °F63%30.24 "Hg
* Reported Feb 15 11:52 AM — Mar 2 11:52 AM, Oklahoma City, Weather by CustomWeather, © 2015

Note: Actual official high and low records may vary slightly from our data, if they occured in-between our weather recording intervals... More about our weather records

Advertising

Oklahoma City weather history for previous 24 hours

 ConditionsComfort  
Time TempWeatherWind HumidityBarometerVisibility
11:52 AM
Mon, Mar 2
34 °FOvercast.3 mph70%30.37 "Hg10 mi
10:52 AM33 °FOvercast.5 mph66%30.40 "Hg9 mi
9:52 AM32 °FOvercast.7 mph69%30.41 "Hg9 mi
8:52 AM30 °FOvercast.9 mph69%30.42 "Hg10 mi
7:52 AM29 °FOvercast.9 mph72%30.43 "Hg9 mi
6:52 AM29 °FOvercast.7 mph72%30.44 "Hg10 mi
5:52 AM29 °FOvercast.6 mph72%30.46 "Hg10 mi
4:52 AM28 °FPassing clouds.5 mph78%30.45 "Hg10 mi
4:01 AM28 °FMostly cloudy.7 mph74%30.41 "Hg10 mi
3:52 AM30 °FMostly cloudy.8 mph72%30.44 "Hg10 mi
2:52 AM30 °FOvercast.8 mph75%30.46 "Hg10 mi
1:52 AM30 °FOvercast.10 mph75%30.46 "Hg10 mi
12:52 AM31 °FOvercast.6 mph73%30.47 "Hg8 mi
11:52 PM
Sun, Mar 1
31 °FOvercast.7 mph69%30.48 "Hg8 mi
10:52 PM29 °FOvercast.6 mph75%30.49 "Hg8 mi
9:52 PM30 °FOvercast.8 mph72%30.48 "Hg10 mi
8:52 PM31 °FPassing clouds.9 mph69%30.46 "Hg10 mi
7:52 PM32 °FPassing clouds.9 mph69%30.42 "Hg10 mi
6:52 PM34 °FMostly cloudy.9 mph70%30.40 "Hg10 mi
5:52 PM34 °FMostly cloudy.9 mph70%30.39 "Hg9 mi
4:52 PM34 °FMostly cloudy.8 mph73%30.38 "Hg8 mi
3:52 PM33 °FOvercast.12 mph75%30.38 "Hg4 mi
2:52 PM33 °FLow clouds.10 mph75%30.38 "Hg5 mi
1:52 PM32 °FLow clouds.9 mph82%30.38 "Hg6 mi
Weather by CustomWeather, © 2015

See weather overviewHow to use our weather pages